Tiempo atmosférico en la estación meteorológica de Zamora, Zamora (656 m.)



Fecha
DESCASC
Temp. máxima en grados centígrados (hora)
DESCASC
Temp. mínima en grados centígrados (hora)
DESCASC
Temp. media en grados centígrados
DESCASC
Racha de viento máxima en m/sg (hora)
DESCASC
Velocidad máxima media en intervalos de 10 minutos(hora)
DESCASC
Precipitaciones diarias en mm
DESCASC
Precipitaciones de 00:00 a 06:00 en mm
DESCASC
Precipitaciones de 06:00 a 12:00 en mm
DESCASC
Precipitaciones de 12:00 a 18:00 en mm
DESCASC
Precipitaciones de 18:00 a 24:00 en mm
DESCASC
26-11-2020 12 (15:40) 7.5 (05:00) 9.8 8.89 (21:10) 4.17 (22:30) 2.2 0.6 0.2 0 1.4
25-11-2020 8.6 (23:50) 2.4 (05:10) 5.5 5 (11:20) 3.33 (11:30) 5 0 3.6 1.4 0
24-11-2020 12.5 (15:00) -0.9 (08:50) 5.8 6.39 (14:00) 2.5 (14:40) 0 0 0 0 0
23-11-2020 14.3 (15:20) 0.4 (08:00) 7.4 4.17 (12:50) 1.67 (12:20) 0 0 0 0 0
22-11-2020 16.5 (15:50) 0.3 (00:00) 8.4 2.78 (10:50) 1.39 (16:10) 0 0 0 0 0
21-11-2020 15.2 (15:00) 1.7 (00:00) 8.4 4.72 (11:30) 2.78 (11:40) 0 0 0 0 0
20-11-2020 12.8 (15:30) 4.5 (00:00) 8.7 8.89 (11:30) 5 (11:30) 0 0 0 0 0
19-11-2020 15.3 (15:50) 5.2 (00:00) 10.3 4.17 (10:30) 2.22 (22:10) 0 0 0 0 0
18-11-2020 16.4 (15:50) 3.8 (00:00) 10.1 3.89 (14:10) 2.5 (14:40) 0 0 0 0 0
17-11-2020 9.2 (16:10) 2.5 (00:00) 5.8 2.78 (11:50) 1.39 (09:00) 0.2 0 0.2 0 0
16-11-2020 15.6 (15:50) 7.6 (00:00) 11.6 5 (00:50) 2.22 (12:00) 0 0 0 0 0
15-11-2020 17.8 (14:50) 12.6 (00:00) 15.2 12.22 (13:20) 4.44 (16:00) 0.4 0.2 0 0 0.2
14-11-2020 15.2 (17:10) 5.9 (00:00) 10.5 6.11 (17:20) 1.94 (17:20) 0 0 0 0 0
13-11-2020 10.9 (16:10) 7.7 (00:00) 9.3 3.33 (11:20) 2.22 (10:40) 0.2 0.2 0 0 0
12-11-2020 10.7 (16:10) 6 (00:00) 8.3 3.33 (07:40) 1.94 (13:10) 0 0 0 0 0
11-11-2020 11 (15:30) 7.6 (00:00) 9.3 4.17 (19:20) 2.22 (19:50) 0.2 0 0 0.2 0
10-11-2020 8.6 (00:10) 7.1 (00:00) 7.9 3.33 (11:30) 2.22 (11:40) 0 0 0 0 0
09-11-2020 14.6 (16:00) 8.5 (00:00) 11.6 5.28 (14:30) 2.5 (15:00) 1 0.8 0.2 0 0
08-11-2020 14.8 (12:00) 8.8 (00:00) 11.8 8.33 (15:40) 3.33 (15:40) 11 0 0.2 1.6 9.2
07-11-2020 16.8 (15:00) 8.9 (00:00) 12.8 7.5 (13:40) 3.33 (15:10) 0.6 0.6 0 0 0
06-11-2020 17.7 (16:00) 9.1 (00:00) 13.4 13.61 (15:50) 6.67 (15:50) 2.4 0.6 0 0.2 1.6
05-11-2020 13.3 (15:40) 6.1 (00:00) 9.7 8.61 (08:30) 5 (19:00) 3 0 0.2 0.4 2.4
04-11-2020 11.2 (13:40) 4.5 (00:00) 7.8 12.5 (20:00) 7.5 (19:50) 0.2 0 0 0 0.2
03-11-2020 16 (15:30) 6.4 (00:00) 11.2 9.17 (10:10) 5.28 (10:10) 0 0 0 0 0
02-11-2020 20.3 (14:10) 11.7 (00:00) 16 5.83 (13:10) 2.78 (11:50) 0 0 0 0 0
01-11-2020 19.2 (15:00) 9 (00:00) 14.1 5 (14:10) 2.22 (14:20) 0 0 0 0 0
31-10-2020 20.7 (15:20) 5.1 (00:00) 12.9 6.11 (15:30) 2.5 (15:30) 0 0 0 0 0
30-10-2020 18.3 (16:00) 3.9 (00:00) 11.1 3.06 (09:00) 1.39 (09:00) 0.2 0 0 0.2 0
29-10-2020 16.6 (15:40) 4.8 (00:00) 10.7 3.33 (10:00) 2.22 (10:10) 0 0 0 0 0
28-10-2020 16.8 (15:10) 9 (00:00) 12.9 7.22 (01:00) 3.06 (00:40) 0.2 0 0 0.2 0

Gráficas

Temp. máximas Temp. mínimas Temp. medias Precipitaciones Rachas de viento máximas Velocidades máximas media en intervalos de 10 minutos

Datos horarios

Fecha y hora oficial Temperatura (ºC) Velocidad del viento (km/h) Dirección del viento Racha (km/h) Dirección de racha Precipitación (mm) Presión (hPa) Tendencia (hPa) Humedad (%)
2020-11-26 23:00:00 9.1 11 Este 29 Sudeste 1 935.3 1.3 94
2020-11-26 22:00:00 9.3 6 Sudeste 32 Sudeste 0 935.1 1.2 89
2020-11-26 21:00:00 10.4 10 Este 23 Este 0 934.6 -- 84
2020-11-26 20:00:00 10 5 Nordeste 13 Este 0.2 934 -- 88
2020-11-26 19:00:00 10.4 8 Nordeste 14 Nordeste 0.2 933.9 -- 86
2020-11-26 18:00:00 10.8 8 Este 12 Este 0 933.4 -- 83
2020-11-26 17:00:00 11.1 8 Nordeste 16 Este 0 933.3 -- 87
2020-11-26 16:00:00 11.6 8 Este 21 Este 0 933.2 -- 81
2020-11-26 15:00:00 11.3 10 Este 22 Este 0 933.5 -- 79
2020-11-26 14:00:00 11.4 10 Este 22 Sudeste 0 933.8 -- 80
2020-11-26 13:00:00 11 9 Este 17 Sudeste 0 934.1 -- 86
2020-11-26 12:00:00 10.3 10 Sudeste 25 Sudeste 0.2 934.8 -- 86
2020-11-26 11:00:00 9.3 11 Este 19 Este 0 934.4 -- 87
2020-11-26 10:00:00 8.8 8 Este 23 Este 0 933.8 -- 87
2020-11-26 09:00:00 8.8 11 Este 25 Este 0 933.1 -- 87
2020-11-26 08:00:00 8.5 9 Sudeste 24 Sudeste 0 932.7 -- 89
2020-11-26 07:00:00 8.1 8 Este 18 Este 0 932 -- 92
2020-11-26 06:00:00 7.8 7 Este 14 Este 0 932 -- 94
2020-11-26 05:00:00 7.5 3 Este 10 Este 0 931.9 -- 95
2020-11-26 04:00:00 8 4 Nordeste 11 Nordeste 0 932.3 -- 96
2020-11-26 03:00:00 8.1 5 Nordeste 9 Este 0.4 932.4 -- 96
2020-11-26 02:00:00 8.6 5 Este 9 Este 0.2 932.9 -- 94
2020-11-26 01:00:00 8.7 4 Sudeste 12 Sudeste 0 933.2 -- 92
2020-11-26 00:00:00 8.4 5 Este 10 Sudeste 0 933.1 -- 93
2020-11-25 23:00:00 8.4 6 Este 10 Sur 0 932.9 -- 93
2020-11-25 22:00:00 8 3 Sudeste 11 Sudeste 0 932.7 -- 95
2020-11-25 21:00:00 7.5 5 Este 10 Este 0 932.7 -- 97
2020-11-25 20:00:00 7.4 5 Este 9 Este 0 932.7 -- 98
2020-11-25 19:00:00 7.5 6 Nordeste 11 Nordeste 0 932.9 -- 98
2020-11-25 18:00:00 7.7 4 Nordeste 9 Nordeste 0 933.1 -- 98
2020-11-25 17:00:00 7.7 0 Calma 11 Este 0 933.7 -- 98
2020-11-25 16:00:00 7.4 7 Este 13 Este 0.2 933.7 -- 99
2020-11-25 15:00:00 6.7 6 Este 10 Este 0.2 934.5 -- 98
2020-11-25 14:00:00 6.2 7 Este 13 Este 0.6 935.4 -- 98
2020-11-25 13:00:00 5.7 9 Este 17 Este 0.4 936.3 -- 98
2020-11-25 12:00:00 5.1 10 Este 18 Sudeste 1.2 937 -- 98
2020-11-25 11:00:00 4.6 10 Este 18 Sudeste 0.8 937.3 -- 98
2020-11-25 10:00:00 4.4 9 Este 13 Este 1.2 937.4 -- 98
2020-11-25 09:00:00 4 8 Este 12 Este 0.4 937.5 -- 97
2020-11-25 08:00:00 3.9 5 Este 10 Este 0 937.7 -- 97
2020-11-25 07:00:00 3.5 5 Este 8 Este 0 937.8 -- 98
2020-11-25 06:00:00 2.9 3 Nordeste 6 Nordeste 0 938 -- 98
2020-11-25 05:00:00 2.5 3 Nordeste 7 Este 0 938.4 -- 95
2020-11-25 04:00:00 3.2 3 Nordeste 6 Sudeste 0 938.7 -- 91
2020-11-25 03:00:00 4.8 3 Sur 6 Sudeste 0 939.2 -- 90
2020-11-25 02:00:00 6.3 2 Sur 13 Sudoeste 0 939.5 -- 88
2020-11-25 01:00:00 6.7 0 Calma 12 Sudoeste 0 940 -- 86
2020-11-25 00:00:00 7.4 8 Sudoeste 17 Sudoeste 0 940.5 -- 83
2020-11-24 23:00:00 7.7 5 Sudoeste 17 Sudoeste 0 940.9 -- 83
2020-11-24 22:00:00 8.1 6 Sudoeste 14 Sudoeste 0 941.4 -- 82
2020-11-24 21:00:00 8.6 5 Oeste 17 Sudoeste 0 941.7 -- 82
2020-11-24 20:00:00 8.9 4 Sur 8 Sur 0 942 -- 84
2020-11-24 19:00:00 10.1 3 Sudoeste 10 Oeste 0 942.2 -- 78
2020-11-24 18:00:00 11.2 4 Sudoeste 14 Oeste 0 942.2 -- 74
2020-11-24 17:00:00 11.9 5 Oeste 20 Oeste 0 942.3 -- 71
2020-11-24 16:00:00 12.3 6 Oeste 17 Oeste 0 942.6 -- 70
2020-11-24 15:00:00 12.5 6 Sudoeste 20 Oeste 0 943.1 -- 69
2020-11-24 14:00:00 12.2 8 Sudoeste 23 Oeste 0 944 -- 69
2020-11-24 13:00:00 9.7 3 Sudoeste 5 Oeste 0 945 -- 79
2020-11-24 12:00:00 6.2 2 Sudeste 5 Norte 0 946.1 -- 88
2020-11-24 11:00:00 3.4 2 Este 4 Norte 0 946.5 -- 98
2020-11-24 10:00:00 0.5 2 Nordeste 4 Norte 0 946.6 -- 100
2020-11-24 09:00:00 -0.9 0 Calma 4 Norte 0 946.4 -- 97
2020-11-24 08:00:00 -0.4 0 Calma 5 Nordeste 0 946.2 -- 96
2020-11-24 07:00:00 0.9 3 Sur 5 Sur 0 946.2 -- 96
2020-11-24 06:00:00 1.1 0 Calma 3 Nordeste 0 946.2 -- 96
2020-11-24 05:00:00 1.4 2 Noroeste 5 Este 0 946.5 -- 96
2020-11-24 04:00:00 1.5 2 Este 4 Este 0 946.8 -- 93
2020-11-24 03:00:00 2.1 0 Calma 3 Norte 0 947.2 -- 93
2020-11-24 02:00:00 2.8 0 Calma 4 Este 0 947.6 -- 92
2020-11-24 01:00:00 3.4 0 Calma 4 Norte 0 948.2 -- 91
2020-11-24 00:00:00 4.3 0 Calma 3 Noroeste 0 948.4 -- 91
2020-11-23 23:00:00 5.1 0 Calma 3 Nordeste 0 948.8 -- 88
2020-11-23 22:00:00 6.1 2 Noroeste 3 Noroeste 0 948.9 -- 86
2020-11-23 21:00:00 7 3 Nordeste 7 Nordeste 0 948.9 -- 81
2020-11-23 20:00:00 8.2 0 Calma 3 Norte 0 948.8 -- 75
2020-11-23 19:00:00 9.6 0 Calma 2 Oeste 0 948.9 -- 71
2020-11-23 18:00:00 11.3 0 Calma 4 Noroeste 0 948.9 -- 65
2020-11-23 17:00:00 12.6 0 Calma 7 Norte 0 948.8 -- 60
2020-11-23 16:00:00 14.1 3 Noroeste 7 Norte 0 949 -- 56
2020-11-23 15:00:00 14.2 4 Sudeste 9 Este 0 949.5 -- 57
2020-11-23 14:00:00 12.2 4 Este 10 Norte 0 950.3 -- 66
2020-11-23 13:00:00 9.6 5 Nordeste 15 Nordeste 0 951.1 -- 77
2020-11-23 12:00:00 7 6 Nordeste 11 Este 0 952 -- 84
2020-11-23 11:00:00 4.3 2 Este 5 Nordeste 0 952 -- 93
2020-11-23 10:00:00 1.3 3 Nordeste 6 Nordeste 0 952 -- 97
2020-11-23 09:00:00 0.7 2 Nordeste 5 Nordeste 0 951.7 -- 97
2020-11-23 08:00:00 0.4 0 Calma 3 Norte 0 951.3 -- 95
2020-11-23 07:00:00 1 0 Calma 4 Nordeste 0 951 -- 96
2020-11-23 06:00:00 1.3 3 Nordeste 6 Norte 0 951 -- 96
2020-11-23 05:00:00 1.8 4 Nordeste 7 Nordeste 0 951 -- 95
2020-11-23 04:00:00 2.4 0 Calma 4 Nordeste 0 951 -- 95
2020-11-23 03:00:00 2.7 3 Nordeste 4 Nordeste 0 951.1 -- 94
2020-11-23 02:00:00 3.3 3 Norte 6 Nordeste 0 951.1 -- 92
2020-11-23 01:00:00 4.3 0 Calma 4 Este 0 951.2 -- 91
2020-11-23 00:00:00 4.8 0 Calma 6 Nordeste 0 951.1 -- 88
2020-11-22 23:00:00 5.8 3 Este 5 Nordeste 0 951.1 -- 86
2020-11-22 22:00:00 7.3 2 Oeste 5 Oeste 0 950.8 -- 83
2020-11-22 21:00:00 8.1 0 Calma 5 Nordeste 0 950.6 -- 78
2020-11-22 20:00:00 9.3 4 Nordeste 7 Este 0 950.2 -- 75
2020-11-22 19:00:00 11 0 Calma 6 Sudeste 0 949.9 -- 69
2020-11-22 18:00:00 12.6 5 Sur 9 Sudeste 0 949.5 -- 64
2020-11-22 17:00:00 13.8 4 Este 8 Este 0 949.4 -- 60
2020-11-22 16:00:00 16.4 4 Sudeste 8 Sudeste 0 949.2 -- 51
2020-11-22 15:00:00 16.1 3 Sudeste 8 Este 0 949.6 -- 52
2020-11-22 14:00:00 13.7 0 Calma 5 Nordeste 0 950.4 -- 54
2020-11-22 13:00:00 11.4 2 Este 6 Este 0 951.2 -- 62
2020-11-22 12:00:00 7.8 3 Nordeste 5 Nordeste 0 951.9 -- 72
2020-11-22 11:00:00 4.9 3 Nordeste 10 Este 0 952.1 -- 83
2020-11-22 10:00:00 1.8 0 Calma 3 Norte 0 952 -- 97
2020-11-22 09:00:00 0.4 2 Este 4 Este 0 951.7 -- 95
2020-11-22 08:00:00 0.5 2 Norte 4 Norte 0 951.4 -- 93
2020-11-22 07:00:00 1 2 Noroeste 5 Noroeste 0 951.3 -- 94
2020-11-22 06:00:00 1.1 0 Calma 5 Nordeste 0 951.1 -- 92
2020-11-22 05:00:00 1.7 2 Nordeste 5 Norte 0 950.7 -- 92
2020-11-22 04:00:00 2.3 3 Norte 4 Norte 0 950.5 -- 90
2020-11-22 03:00:00 2.9 0 Calma 3 Oeste 0 950.3 -- 89
2020-11-22 02:00:00 3.2 0 Calma 5 Este 0 950.5 -- 89
2020-11-22 01:00:00 3.6 0 Calma 3 Nordeste 0 950.4 -- 88
2020-11-22 00:00:00 4.3 0 Calma 5 Sudeste 0 950.3 -- 84
2020-11-21 23:00:00 5.4 0 Calma 5 Noroeste 0 950.3 -- 77
2020-11-21 22:00:00 6.2 4 Noroeste 5 Noroeste 0 950.2 -- 76
2020-11-21 21:00:00 6.8 0 Calma 5 Norte 0 950 -- 74
2020-11-21 20:00:00 8.8 0 Calma 5 Oeste 0 949.8 -- 61
2020-11-21 19:00:00 10.2 2 Sudoeste 7 Sur 0 949.5 -- 52
2020-11-21 18:00:00 11.5 2 Este 5 Sur 0 949.4 -- 43
2020-11-21 17:00:00 12.8 3 Nordeste 8 Norte 0 949.3 -- 46
2020-11-21 16:00:00 14.6 5 Nordeste 12 Este 0 949.3 -- 34
2020-11-21 15:00:00 15.1 5 Este 14 Este 0 949.7 -- 34
2020-11-21 14:00:00 13.5 4 Nordeste 14 Norte 0 950.2 -- 41
2020-11-21 13:00:00 11.2 8 Nordeste 14 Este 0 951 -- 47
2020-11-21 12:00:00 9 7 Nordeste 17 Nordeste 0 952 -- 65
2020-11-21 11:00:00 6.6 7 Este 12 Este 0 952.2 -- 84
2020-11-21 10:00:00 3.5 4 Nordeste 10 Nordeste 0 952.1 -- 95
2020-11-21 09:00:00 1.7 4 Nordeste 10 Nordeste 0 951.8 -- 95
2020-11-21 08:00:00 1.9 3 Norte 12 Norte 0 951.6 -- 94
2020-11-21 07:00:00 2.1 4 Este 9 Este 0 951.6 -- 94
2020-11-21 06:00:00 2.5 4 Este 10 Nordeste 0 951.6 -- 94
2020-11-21 05:00:00 3 5 Nordeste 12 Nordeste 0 951.6 -- 93
2020-11-21 04:00:00 3.3 5 Norte 11 Nordeste 0 952.2 -- 93
2020-11-21 03:00:00 3.5 5 Norte 10 Nordeste 0 952.4 -- 93
2020-11-21 02:00:00 3.6 5 Norte 12 Nordeste 0 952.4 -- 92
2020-11-21 01:00:00 4 7 Norte 10 Norte 0 953 -- 92
2020-11-21 00:00:00 4.5 6 Norte 9 Norte 0 953.3 -- 90
2020-11-20 23:00:00 5.1 3 Este 15 Nordeste 0 953.7 -- 87
2020-11-20 22:00:00 5.7 6 Nordeste 13 Nordeste 0 953.8 -- 87
2020-11-20 21:00:00 6.6 8 Nordeste 14 Nordeste 0 953.6 -- 85
2020-11-20 20:00:00 7.3 4 Nordeste 17 Norte 0 953.4 -- 81
2020-11-20 19:00:00 8.7 8 Norte 15 Norte 0 953.7 -- 75
2020-11-20 18:00:00 10.4 6 Nordeste 20 Nordeste 0 953.5 -- 68
2020-11-20 17:00:00 11.7 12 Nordeste 27 Nordeste 0 953.6 -- 61
2020-11-20 16:00:00 12.6 13 Nordeste 26 Nordeste 0 953.8 -- 58
2020-11-20 15:00:00 12.5 12 Este 28 Nordeste 0 954.5 -- 62
2020-11-20 14:00:00 11.5 15 Nordeste 25 Nordeste 0 954.9 -- 63
2020-11-20 13:00:00 10.3 15 Este 25 Nordeste 0 955.9 -- 71
2020-11-20 12:00:00 9.3 14 Nordeste 32 Nordeste 0 957 -- 76
2020-11-20 11:00:00 7.4 17 Nordeste 28 Nordeste 0 957.3 -- 83
2020-11-20 10:00:00 6 11 Nordeste 21 Nordeste 0 957.1 -- 92
2020-11-20 09:00:00 5.2 6 Nordeste 12 Nordeste 0 957.1 -- 96
2020-11-20 08:00:00 4.8 5 Nordeste 12 Nordeste 0 956.7 -- 96
2020-11-20 07:00:00 5.2 4 Nordeste 9 Nordeste 0 956.9 -- 94
2020-11-20 06:00:00 5.8 5 Nordeste 8 Nordeste 0 956.9 -- 95
2020-11-20 05:00:00 6.8 4 Este 7 Nordeste 0 956.9 -- 95
2020-11-20 04:00:00 7.5 5 Nordeste 10 Nordeste 0 957.3 -- 94
2020-11-20 03:00:00 7.8 4 Nordeste 9 Nordeste 0 957.2 -- 95
2020-11-20 02:00:00 7.6 5 Nordeste 9 Nordeste 0 957.7 -- 97
2020-11-20 01:00:00 6.9 5 Nordeste 9 Nordeste 0 957.9 -- 98
2020-11-20 00:00:00 7.5 3 Norte 6 Norte 0 957.7 -- 96
2020-11-19 23:00:00 8.6 5 Nordeste 10 Nordeste 0 957.6 -- 96
2020-11-19 22:00:00 9.3 5 Nordeste 10 Este 0 957.3 -- 97
2020-11-19 21:00:00 9.7 2 Nordeste 5 Sur 0 956.9 -- 95
2020-11-19 20:00:00 11 0 Calma 4 Nordeste 0 956.7 -- 93
2020-11-19 19:00:00 12 0 Calma 5 Sur 0 956.4 -- 90
2020-11-19 18:00:00 13.3 2 Sur 5 Nordeste 0 956 -- 87
2020-11-19 17:00:00 14.1 3 Norte 6 Nordeste 0 956 -- 84
2020-11-19 16:00:00 15 0 Calma 9 Sudeste 0 955.9 -- 78
2020-11-19 15:00:00 14 4 Sur 8 Sur 0 956.1 -- 86
2020-11-19 14:00:00 11.1 4 Nordeste 10 Norte 0 957.1 -- 96
2020-11-19 13:00:00 9.9 4 Nordeste 8 Nordeste 0 957.7 -- 96
2020-11-19 12:00:00 8.8 4 Este 12 Norte 0 957.8 -- 99
2020-11-19 11:00:00 7.6 6 Nordeste 15 Nordeste 0 958.4 -- 100
2020-11-19 10:00:00 6.8 4 Nordeste 8 Norte 0 958.1 -- 100
2020-11-19 09:00:00 5.7 2 Norte 5 Norte 0 957.1 -- 100
2020-11-19 08:00:00 5.3 0 Calma 6 Norte 0 956.1 -- 99
2020-11-19 07:00:00 5.8 2 Este 4 Nordeste 0 955.4 -- 99
2020-11-19 06:00:00 6.2 2 Norte 5 Norte 0 954.9 -- 98
2020-11-19 05:00:00 6.9 3 Sudeste 5 Norte 0 954.4 -- 99
2020-11-19 04:00:00 7 3 Noroeste 5 Noroeste 0 954.1 -- 99
2020-11-19 03:00:00 7.3 2 Norte 4 Norte 0 953.8 -- 98
2020-11-19 02:00:00 8 2 Nordeste 6 Este 0 953.6 -- 97
2020-11-19 01:00:00 8.4 2 Sudeste 5 Nordeste 0 953.8 -- 96
2020-11-19 00:00:00 9 2 Norte 5 Norte 0 953.6 -- 96
2020-11-18 23:00:00 9.9 3 Norte 5 Norte 0 953.2 -- 96
2020-11-18 22:00:00 10.4 3 Norte 4 Norte 0 952.6 -- 94
2020-11-18 21:00:00 11 0 Calma 3 Nordeste 0 952.1 -- 91
2020-11-18 20:00:00 11.9 0 Calma 3 Noroeste 0 951.5 -- 90
2020-11-18 19:00:00 12.7 2 Noroeste 4 Oeste 0 951.1 -- 88
2020-11-18 18:00:00 13.9 3 Noroeste 6 Norte 0 950.7 -- 84
2020-11-18 17:00:00 15.3 4 Norte 8 Noroeste 0 950.3 -- 79
2020-11-18 16:00:00 16.3 3 Nordeste 12 Nordeste 0 950.2 -- 75
2020-11-18 15:00:00 15.4 6 Nordeste 14 Nordeste 0 950.3 -- 78
2020-11-18 14:00:00 14.6 8 Nordeste 13 Nordeste 0 950.6 -- 81
2020-11-18 13:00:00 12.8 6 Nordeste 12 Este 0 951.2 -- 83
2020-11-18 12:00:00 10.8 5 Este 9 Norte 0 951.6 -- 92
2020-11-18 11:00:00 7.2 4 Nordeste 9 Nordeste 0 951.7 -- 100
2020-11-18 10:00:00 4.6 2 Nordeste 4 Norte 0 951.4 -- 100
2020-11-18 09:00:00 4 2 Norte 8 Este 0 951 -- 100
2020-11-18 08:00:00 3.9 2 Nordeste 4 Nordeste 0 950.4 -- 100
2020-11-18 07:00:00 4.2 3 Norte 4 Norte 0 950.1 -- 100
2020-11-18 06:00:00 4.3 0 Calma 5 Nordeste 0 949.9 -- 99
2020-11-18 05:00:00 5.6 2 Este 4 Sudeste 0 949.6 -- 99
2020-11-18 04:00:00 6.2 3 Sudeste 5 Sudeste 0 949.6 -- 100
2020-11-18 03:00:00 6.4 2 Sudeste 5 Este 0 949.7 -- 100
2020-11-18 02:00:00 6.7 3 Este 5 Sudeste 0 950 -- 100
2020-11-18 01:00:00 7.1 3 Norte 5 Nordeste 0 949.9 -- 100
2020-11-18 00:00:00 7.5 0 Calma 4 Nordeste 0 949.8 -- 100
2020-11-17 23:00:00 7.8 2 Nordeste 4 Nordeste 0 949.9 -- 100
2020-11-17 22:00:00 8.1 0 Calma 4 Oeste 0 949.7 -- 100
2020-11-17 21:00:00 8.4 0 Calma 4 Sur 0 949.5 -- 99
2020-11-17 20:00:00 8.5 4 Sudeste 5 Sudeste 0 949.4 -- 99
2020-11-17 19:00:00 8.7 2 Norte 4 Nordeste 0 949.1 -- 99
2020-11-17 18:00:00 8.9 2 Norte 4 Noroeste 0 949.1 -- 98
2020-11-17 17:00:00 9.1 2 Norte 5 Norte 0 949.2 -- 97
2020-11-17 16:00:00 9.1 0 Calma 9 Este 0 949.2 -- 97
2020-11-17 15:00:00 8.8 3 Sur 8 Este 0 949.6 -- 98
2020-11-17 14:00:00 7.9 3 Nordeste 7 Sudeste 0 950 -- 99
2020-11-17 13:00:00 7 4 Este 7 Este 0 950.6 -- 100
2020-11-17 12:00:00 6.1 4 Nordeste 10 Este 0 951.4 -- 100
2020-11-17 11:00:00 5.5 4 Este 8 Este 0 951.7 -- 100
2020-11-17 10:00:00 4.3 2 Este 7 Este 0 951.4 -- 100
2020-11-17 09:00:00 2.7 5 Sudeste 8 Sudeste 0 950.9 -- 98
2020-11-17 08:00:00 3.1 0 Calma 5 Norte 0.2 950.5 -- 97
2020-11-17 07:00:00 4.4 2 Nordeste 4 Este 0 950.4 -- 97
2020-11-17 06:00:00 4.6 0 Calma 3 Nordeste 0 950.3 -- 98
2020-11-17 05:00:00 4.8 0 Calma 6 Nordeste 0 950.1 -- 97
2020-11-17 04:00:00 5.1 3 Este 5 Este 0 950.2 -- 95
2020-11-17 03:00:00 5.7 3 Nordeste 8 Nordeste 0 950.2 -- 97
2020-11-17 02:00:00 6.3 4 Nordeste 7 Nordeste 0 950.2 -- 95
2020-11-17 01:00:00 7.1 0 Calma 3 Sur 0 950.2 -- 94
2020-11-17 00:00:00 7.6 0 Calma 4 Norte 0 950.3 -- 94
2020-11-16 23:00:00 8.4 0 Calma 5 Sur 0 950.4 -- 90
2020-11-16 22:00:00 9.1 0 Calma 3 Este 0 949.9 -- 87
2020-11-16 21:00:00 10.1 0 Calma 4 Nordeste 0 949.6 -- 87
2020-11-16 20:00:00 10.8 2 Nordeste 4 Nordeste 0 949.5 -- 82
2020-11-16 19:00:00 11.8 3 Norte 4 Nordeste 0 949.1 -- 80
2020-11-16 18:00:00 13 2 Nordeste 5 Este 0 948.7 -- 74
2020-11-16 17:00:00 14 2 Noroeste 10 Nordeste 0 948.8 -- 69
2020-11-16 16:00:00 15.2 4 Norte 13 Norte 0 948.6 -- 65
2020-11-16 15:00:00 15.2 5 Nordeste 13 Norte 0 948.4 -- 67
2020-11-16 14:00:00 14.9 6 Nordeste 12 Norte 0 948.8 -- 70
2020-11-16 13:00:00 14.3 3 Nordeste 14 Norte 0 949 -- 74
2020-11-16 12:00:00 13.1 8 Norte 14 Norte 0 949.4 -- 83
2020-11-16 11:00:00 12.7 5 Nordeste 9 Norte 0 948.8 -- 90
2020-11-16 10:00:00 11.9 4 Norte 8 Norte 0 948.2 -- 89
2020-11-16 09:00:00 11.2 3 Oeste 8 Noroeste 0 947.6 -- 94
2020-11-16 08:00:00 11 2 Oeste 9 Oeste 0 947.2 -- 96
2020-11-16 07:00:00 10.7 0 Calma 14 Oeste 0 946.6 -- 94
2020-11-16 06:00:00 12 7 Oeste 15 Sudoeste 0 946.2 -- 94
2020-11-16 05:00:00 12.6 3 Oeste 15 Oeste 0 945.8 -- 92
2020-11-16 04:00:00 12.9 4 Oeste 11 Sudoeste 0 946.1 -- 94
2020-11-16 03:00:00 13.7 4 Oeste 12 Sudoeste 0 945.5 -- 93
2020-11-16 02:00:00 14 3 Oeste 14 Oeste 0 945.7 -- 93
2020-11-16 01:00:00 14.4 6 Sudoeste 18 Sudoeste 0 945.5 -- 92
2020-11-16 00:00:00 14.6 6 Sudoeste 15 Oeste 0 945.4 -- 93
2020-11-15 23:00:00 14.7 6 Oeste 17 Sudoeste 0.2 945.3 -- 94
2020-11-15 22:00:00 15 6 Oeste 16 Oeste 0 944.8 -- 92
2020-11-15 21:00:00 15.5 5 Oeste 12 Oeste 0 944 -- 86
2020-11-15 20:00:00 15.4 4 Sudoeste 15 Sudoeste 0 943.6 -- 86
2020-11-15 19:00:00 15.6 9 Sudoeste 29 Oeste 0 943 -- 83
2020-11-15 18:00:00 16.4 10 Sudoeste 28 Oeste 0 942.7 -- 79
2020-11-15 17:00:00 16.8 12 Oeste 33 Sudoeste 0 942.5 -- 77
2020-11-15 16:00:00 17.2 16 Oeste 38 Oeste 0 941.9 -- 76
2020-11-15 15:00:00 17.7 15 Oeste 36 Noroeste 0 941.9 -- 74
2020-11-15 14:00:00 17.6 15 Sudoeste 44 Sudoeste 0 942 -- 75
2020-11-15 13:00:00 17 13 Sudoeste 32 Sudoeste 0 942.4 -- 81
2020-11-15 12:00:00 16 13 Sudoeste 30 Sudoeste 0 943 -- 85
2020-11-15 11:00:00 15.7 11 Sudoeste 28 Sudoeste 0 942.7 -- 87
2020-11-15 10:00:00 15 11 Sudoeste 28 Oeste 0 942.4 -- 90
2020-11-15 09:00:00 14.5 9 Sudoeste 23 Sudoeste 0 942.2 -- 92
2020-11-15 08:00:00 14 9 Sudoeste 25 Sudoeste 0 941.9 -- 94
2020-11-15 07:00:00 13.4 9 Sudoeste 21 Sudoeste 0 941.6 -- 94
2020-11-15 06:00:00 13.4 7 Sudoeste 22 Sudoeste 0 941.8 -- 93
2020-11-15 05:00:00 13.5 8 Sudoeste 24 Sudoeste 0.2 941.6 -- 92
2020-11-15 04:00:00 13.1 6 Sudoeste 18 Oeste 0 941.8 -- 90
2020-11-15 03:00:00 12.8 4 Sudoeste 9 Sudoeste 0 942.3 -- 88
2020-11-15 02:00:00 12.7 3 Sur 10 Oeste 0 942.5 -- 89
2020-11-15 01:00:00 12.6 4 Sudoeste 10 Sur 0 943 -- 88
2020-11-15 00:00:00 12.7 3 Sudoeste 10 Sudoeste 0 943.3 -- 91
2020-11-14 23:00:00 12.6 3 Sudoeste 11 Sudoeste 0 943.5 -- 91
2020-11-14 22:00:00 12.9 5 Sudoeste 13 Sudoeste 0 943.5 -- 90
2020-11-14 21:00:00 13.6 5 Sudoeste 14 Sudoeste 0 943.4 -- 87
2020-11-14 20:00:00 13.7 4 Sudoeste 11 Oeste 0 943.1 -- 88
2020-11-14 19:00:00 14.1 5 Oeste 14 Oeste 0 942.6 -- 86
2020-11-14 18:00:00 14.6 5 Sudoeste 22 Sudoeste 0 942.1 -- 83
2020-11-14 17:00:00 15.1 5 Sudoeste 14 Oeste 0 942 -- 83
2020-11-14 16:00:00 14 3 Sudoeste 9 Sudoeste 0 941.8 -- 85
2020-11-14 15:00:00 12.8 0 Calma 5 Este 0 942.1 -- 89
2020-11-14 14:00:00 11.4 0 Calma 8 Nordeste 0 942.6 -- 91
2020-11-14 13:00:00 10.3 5 Norte 8 Norte 0 943.3 -- 95
2020-11-14 12:00:00 8.9 3 Este 5 Norte 0 943.7 -- 99
2020-11-14 11:00:00 8.1 2 Este 6 Norte 0 943.7 -- 100
2020-11-14 10:00:00 7.2 4 Nordeste 5 Nordeste 0 943.5 -- 100
2020-11-14 09:00:00 6.5 4 Nordeste 5 Nordeste 0 943.3 -- 100
2020-11-14 08:00:00 6.3 3 Norte 6 Nordeste 0 942.9 -- 100
2020-11-14 07:00:00 6.1 3 Nordeste 6 Nordeste 0 943 -- 100
2020-11-14 06:00:00 6 4 Nordeste 8 Nordeste 0 942.9 -- 100
2020-11-14 05:00:00 5.9 4 Este 8 Este 0 942.9 -- 100
2020-11-14 04:00:00 6.3 5 Este 9 Este 0 943.2 -- 100
2020-11-14 03:00:00 6.8 5 Nordeste 8 Este 0 943.4 -- 100
2020-11-14 02:00:00 7.2 5 Este 8 Sudeste 0 943.7 -- 100
2020-11-14 01:00:00 7.6 4 Este 7 Este 0 944.1 -- 100
2020-11-14 00:00:00 7.9 3 Este 5 Este 0 944.5 -- 100
2020-11-13 23:00:00 8 3 Nordeste 5 Norte 0 944.5 -- 100
2020-11-13 22:00:00 8.1 3 Norte 5 Norte 0 944.2 -- 100
2020-11-13 21:00:00 8.1 4 Nordeste 8 Nordeste 0 944.1 -- 100
2020-11-13 20:00:00 8.2 4 Nordeste 9 Nordeste 0 943.9 -- 100
2020-11-13 19:00:00 8.5 3 Nordeste 6 Nordeste 0 943.7 -- 96
2020-11-13 18:00:00 9.4 4 Norte 10 Nordeste 0 943.6 -- 94
2020-11-13 17:00:00 10.4 6 Nordeste 12 Norte 0 943.5 -- 91
2020-11-13 16:00:00 10.6 4 Nordeste 10 Norte 0 943.6 -- 90
2020-11-13 15:00:00 10.2 5 Nordeste 11 Norte 0 943.7 -- 92
2020-11-13 14:00:00 9.6 4 Norte 10 Nordeste 0 944 -- 96
2020-11-13 13:00:00 8.9 5 Nordeste 9 Nordeste 0 944.6 -- 97
2020-11-13 12:00:00 8.5 7 Este 12 Este 0 945.1 -- 100
2020-11-13 11:00:00 8.2 5 Este 12 Sudeste 0 945.3 -- 100
2020-11-13 10:00:00 8.2 4 Este 9 Nordeste 0 945.2 -- 100
2020-11-13 09:00:00 8.1 4 Este 8 Sudeste 0 944.8 -- 100
2020-11-13 08:00:00 8 4 Este 8 Norte 0 944.3 -- 100
2020-11-13 07:00:00 8 2 Noroeste 6 Norte 0 944 -- 100
2020-11-13 06:00:00 8.1 2 Nordeste 5 Norte 0.2 943.8 -- 100
2020-11-13 05:00:00 8.1 3 Norte 8 Este 0 943.7 -- 100
2020-11-13 04:00:00 8.1 3 Nordeste 9 Nordeste 0 943.7 -- 100
2020-11-13 03:00:00 8 5 Nordeste 10 Nordeste 0 943.9 -- 100
2020-11-13 02:00:00 7.8 3 Noroeste 8 Noroeste 0 944 -- 100
2020-11-13 01:00:00 7.9 3 Nordeste 6 Este 0 944.3 -- 99
2020-11-13 00:00:00 8 3 Norte 6 Nordeste 0 944.5 -- 99
2020-11-12 23:00:00 8.2 0 Calma 5 Noroeste 0 944.4 -- 97
2020-11-12 22:00:00 8.6 0 Calma 4 Noroeste 0 944.6 -- 97
2020-11-12 21:00:00 8.8 3 Oeste 5 Noroeste 0 944.4 -- 97
2020-11-12 20:00:00 9.1 0 Calma 4 Oeste 0 944.4 -- 96
2020-11-12 19:00:00 9.5 3 Noroeste 6 Norte 0 944.3 -- 95
2020-11-12 18:00:00 10 3 Norte 10 Norte 0 944.1 -- 93
2020-11-12 17:00:00 10.6 7 Nordeste 12 Norte 0 944.3 -- 92
2020-11-12 16:00:00 10.6 6 Nordeste 11 Este 0 944.5 -- 93
2020-11-12 15:00:00 10.3 4 Norte 9 Norte 0 944.8 -- 95
2020-11-12 14:00:00 9.9 5 Nordeste 12 Norte 0 945.4 -- 98
2020-11-12 13:00:00 9.4 4 Nordeste 11 Nordeste 0 946.4 -- 100
2020-11-12 12:00:00 8.9 6 Nordeste 10 Nordeste 0 947.1 -- 100
2020-11-12 11:00:00 8.4 5 Nordeste 9 Este 0 947.2 -- 100
2020-11-12 10:00:00 7.6 3 Este 7 Sudeste 0 947.3 -- 100
2020-11-12 09:00:00 7 2 Nordeste 8 Este 0 947.2 -- 100
2020-11-12 08:00:00 7 5 Norte 12 Norte 0 946.8 -- 100
2020-11-12 07:00:00 6 4 Norte 10 Norte 0 946.5 -- 100
2020-11-12 06:00:00 6.5 4 Nordeste 6 Nordeste 0 946.4 -- 99
2020-11-12 05:00:00 6.8 0 Calma 6 Este 0 946.2 -- 99
2020-11-12 04:00:00 7 3 Sudeste 6 Sudeste 0 946.6 -- 98
2020-11-12 03:00:00 7.4 2 Este 3 Este 0 946.9 -- 97
2020-11-12 02:00:00 7.9 2 Nordeste 5 Sur 0 947.1 -- 97
2020-11-12 01:00:00 8.4 3 Este 5 Este 0 947.4 -- 95
2020-11-12 00:00:00 9 2 Norte 8 Sudeste 0 947.4 -- 94
2020-11-11 23:00:00 9.2 4 Sudeste 12 Sudeste 0 947.3 -- 94
2020-11-11 22:00:00 9.2 5 Sudeste 14 Sudeste 0 947.1 -- 94
2020-11-11 21:00:00 9.1 5 Este 9 Sur 0 947.1 -- 94
2020-11-11 20:00:00 9.4 6 Sudeste 15 Sudeste 0 946.5 -- 93
2020-11-11 19:00:00 9.7 5 Sudeste 10 Sudeste 0 946.9 -- 91
2020-11-11 18:00:00 10.2 5 Este 9 Este 0.2 946.6 -- 89
2020-11-11 17:00:00 10.6 4 Este 9 Sudeste 0 946.7 -- 87
2020-11-11 16:00:00 11 2 Este 8 Sudeste 0 946.8 -- 85
2020-11-11 15:00:00 10.7 4 Este 9 Sur 0 946.8 -- 86
2020-11-11 14:00:00 9.6 2 Este 8 Sudeste 0 947.4 -- 89
2020-11-11 13:00:00 9 3 Oeste 8 Sudeste 0 948.1 -- 92
2020-11-11 12:00:00 8.4 8 Sur 12 Sudeste 0 948.4 -- 95
2020-11-11 11:00:00 8 2 Este 10 Este 0 948.7 -- 98
2020-11-11 10:00:00 7.6 3 Nordeste 9 Nordeste 0 948.6 -- 99
2020-11-11 09:00:00 7.6 4 Este 9 Nordeste 0 948.6 -- 98
2020-11-11 08:00:00 7.7 4 Sudeste 13 Este 0 948.4 -- 98
2020-11-11 07:00:00 8 5 Este 14 Sudeste 0 948.2 -- 96
2020-11-11 06:00:00 8.2 6 Este 11 Sudeste 0 948.5 -- 96
2020-11-11 05:00:00 8.2 5 Este 10 Este 0 948.7 -- 95
2020-11-11 04:00:00 8.4 4 Este 14 Este 0 949.4 -- 93
2020-11-11 03:00:00 8.7 5 Sudeste 12 Sudeste 0 949.8 -- 92
2020-11-11 02:00:00 8.9 5 Sudeste 9 Sudeste 0 950.1 -- 92
2020-11-11 01:00:00 8.8 3 Este 7 Este 0 950.9 -- 95
2020-11-11 00:00:00 8.6 3 Nordeste 7 Este 0 951 -- 96
2020-11-10 23:00:00 8.4 3 Nordeste 10 Norte 0 951.3 -- 97
2020-11-10 22:00:00 8.4 5 Norte 9 Nordeste 0 951.2 -- 98
2020-11-10 21:00:00 8.3 6 Norte 12 Norte 0 951 -- 97
2020-11-10 20:00:00 8.4 5 Nordeste 11 Nordeste 0 950.8 -- 99
2020-11-10 19:00:00 8.4 4 Nordeste 10 Norte 0 950.9 -- 99
2020-11-10 18:00:00 8.4 0 Calma 9 Nordeste 0 951 -- 98
2020-11-10 17:00:00 8.3 5 Norte 9 Norte 0 950.8 -- 97
2020-11-10 16:00:00 8.3 3 Oeste 10 Norte 0 950.9 -- 96
2020-11-10 15:00:00 8.2 3 Norte 8 Norte 0 950.8 -- 96
2020-11-10 14:00:00 8 4 Norte 10 Nordeste 0 951.3 -- 97
2020-11-10 13:00:00 7.9 3 Este 12 Nordeste 0 951.5 -- 98
2020-11-10 12:00:00 7.4 6 Nordeste 12 Nordeste 0 952.1 -- 99
2020-11-10 11:00:00 7.5 0 Calma 10 Nordeste 0 951.9 -- 100
2020-11-10 10:00:00 7.3 4 Norte 8 Nordeste 0 951.7 -- 100
2020-11-10 09:00:00 7.2 3 Noroeste 7 Este 0 950.9 -- 100
2020-11-10 08:00:00 7.2 3 Norte 5 Noroeste 0 950.1 -- 100
2020-11-10 07:00:00 7.3 4 Noroeste 6 Norte 0 950 -- 100
2020-11-10 06:00:00 7.4 2 Norte 6 Noroeste 0 949.7 -- 100
2020-11-10 05:00:00 7.5 2 Oeste 10 Noroeste 0 949.4 -- 99
2020-11-10 04:00:00 7.8 3 Oeste 10 Oeste 0 949.3 -- 99
2020-11-10 03:00:00 7.7 3 Oeste 5 Noroeste 0 949.2 -- 99
2020-11-10 02:00:00 7.3 0 Calma 4 Oeste 0 949.2 -- 97
2020-11-10 01:00:00 7.8 3 Sur 8 Nordeste 0 949 -- 95
2020-11-10 00:00:00 8.5 0 Calma 6 Oeste 0 949 -- 93
2020-11-09 23:00:00 9.5 2 Noroeste 10 Sudoeste 0 948.9 -- 92
2020-11-09 22:00:00 10.1 3 Oeste 8 Oeste 0 948.4 -- 90
2020-11-09 21:00:00 11 3 Oeste 12 Oeste 0 948.2 -- 88
2020-11-09 20:00:00 11.8 4 Sur 9 Sudoeste 0 947.9 -- 87
2020-11-09 19:00:00 12.6 2 Oeste 8 Oeste 0 947.4 -- 82
2020-11-09 18:00:00 13.8 4 Oeste 10 Sudoeste 0 946.8 -- 75
2020-11-09 17:00:00 14.2 6 Sudoeste 12 Oeste 0 946.6 -- 72
2020-11-09 16:00:00 14.5 4 Oeste 18 Oeste 0 946.1 -- 72
2020-11-09 15:00:00 14 9 Oeste 19 Sudoeste 0 946 -- 71
2020-11-09 14:00:00 14.1 6 Oeste 17 Oeste 0 946 -- 74
2020-11-09 13:00:00 13.6 6 Oeste 18 Sur 0 946.3 -- 78
2020-11-09 12:00:00 13.6 6 Sudoeste 17 Sudoeste 0 946.5 -- 80
2020-11-09 11:00:00 11.8 3 Oeste 10 Oeste 0 946.4 -- 91
2020-11-09 10:00:00 11.1 3 Oeste 10 Sudoeste 0 946.3 -- 93
2020-11-09 09:00:00 10.4 5 Oeste 16 Sudoeste 0.2 945.7 -- 95
2020-11-09 08:00:00 10.4 0 Calma 4 Este 0 944.7 -- 98
2020-11-09 07:00:00 10.4 2 Sudeste 8 Sur 0 944.1 -- 98
2020-11-09 06:00:00 10.5 3 Sur 9 Sur 0 943.9 -- 98
2020-11-09 05:00:00 10.6 5 Sudeste 10 Sudeste 0.4 943.6 -- 98
2020-11-09 04:00:00 10.8 4 Sur 8 Sur 0.2 943.6 -- 97
2020-11-09 03:00:00 10.9 3 Sur 8 Sur 0 943.6 -- 97
2020-11-09 02:00:00 10.9 3 Sur 10 Sur 0 943.6 -- 96
2020-11-09 01:00:00 10.8 4 Sur 10 Sur 0.2 943.8 -- 97
2020-11-09 00:00:00 10.8 5 Sur 9 Sur 0 943.7 -- 97
2020-11-08 23:00:00 10.7 5 Sur 13 Sur 0 943.6 -- 96
2020-11-08 22:00:00 10.8 8 Sur 18 Sur 2 943.5 -- 97
2020-11-08 21:00:00 11 8 Sur 15 Sur 3 943.5 -- 96
2020-11-08 20:00:00 11.2 7 Sur 15 Sudoeste 1 943.4 -- 94
2020-11-08 19:00:00 11.4 6 Sur 19 Sur 3.2 943 -- 94
2020-11-08 18:00:00 11.9 5 Sur 15 Sur 0 942.7 -- 86
2020-11-08 17:00:00 12.2 8 Sur 19 Sur 0.2 942.4 -- 83
2020-11-08 16:00:00 13.1 8 Sudoeste 30 Sudoeste 0.2 942.4 -- 80
2020-11-08 15:00:00 13.8 8 Sur 18 Sur 0 942.4 -- 83
2020-11-08 14:00:00 13.4 7 Sur 19 Sur 0.8 942.6 -- 89
2020-11-08 13:00:00 14 9 Sudoeste 28 Sur 0.4 943.7 -- 83
2020-11-08 12:00:00 14.8 12 Sur 25 Sur 0.2 943.6 -- 72
2020-11-08 11:00:00 13.6 12 Sur 26 Sur 0 943.8 -- 73
2020-11-08 10:00:00 12 10 Sur 20 Sur 0 943.8 -- 80
2020-11-08 09:00:00 10.4 6 Sur 14 Sur 0 943.6 -- 88
2020-11-08 08:00:00 9.7 3 Sur 8 Oeste 0 943.3 -- 91
2020-11-08 07:00:00 9.5 3 Sur 9 Sudeste 0 943.3 -- 91
2020-11-08 06:00:00 10 5 Sur 12 Sudeste 0 943.5 -- 89
2020-11-08 05:00:00 10.2 4 Sur 8 Sudeste 0 943.9 -- 89
2020-11-08 04:00:00 10.1 6 Sudeste 12 Este 0 944.1 -- 91
2020-11-08 03:00:00 9.2 0 Calma 3 Este 0 944.2 -- 92
2020-11-08 02:00:00 9.5 0 Calma 11 Sudeste 0 944.1 -- 90
2020-11-08 01:00:00 8.9 3 Sudeste 8 Sudeste 0 944.5 -- 92
2020-11-08 00:00:00 8.9 0 Calma 8 Este 0 944.2 -- 90
2020-11-07 23:00:00 9.8 3 Sudeste 9 Sur 0 944.4 -- 86
2020-11-07 22:00:00 10.2 3 Sur 9 Este 0 944.4 -- 85
2020-11-07 21:00:00 10.6 4 Este 12 Sur 0 944.1 -- 83
2020-11-07 20:00:00 11.9 3 Sur 12 Sur 0 943.7 -- 79
2020-11-07 19:00:00 13.1 5 Sur 22 Sur 0 943 -- 73
2020-11-07 18:00:00 14.4 8 Sudoeste 26 Sudoeste 0 942.4 -- 66
2020-11-07 17:00:00 15.4 9 Sudoeste 23 Sudoeste 0 942 -- 60
2020-11-07 16:00:00 15.6 10 Oeste 25 Sudoeste 0 941.6 -- 63
2020-11-07 15:00:00 16.8 11 Sudoeste 24 Oeste 0 941.1 -- 57
2020-11-07 14:00:00 15.2 9 Oeste 27 Noroeste 0 941.2 -- 69
2020-11-07 13:00:00 14.5 11 Oeste 23 Oeste 0 941 -- 71
2020-11-07 12:00:00 13.9 9 Oeste 23 Sudoeste 0 940.8 -- 76
2020-11-07 11:00:00 12.4 8 Sudoeste 19 Sudoeste 0 940 -- 87
2020-11-07 10:00:00 11.5 4 Sudoeste 10 Oeste 0 939 -- 93
2020-11-07 09:00:00 10.7 3 Oeste 7 Oeste 0 938.4 -- 96
2020-11-07 08:00:00 10.4 0 Calma 6 Sur 0 937.3 -- 97
2020-11-07 07:00:00 10.8 4 Sur 7 Sur 0 936.6 -- 96
2020-11-07 06:00:00 10.9 2 Nordeste 7 Este 0.4 936.2 -- 96
2020-11-07 05:00:00 11 3 Este 5 Este 0.2 936.1 -- 95
2020-11-07 04:00:00 11.4 3 Este 8 Sudeste 0 936.2 -- 93
2020-11-07 03:00:00 11.6 4 Sudeste 9 Sudeste 0 936.1 -- 90
2020-11-07 02:00:00 11.8 3 Sudeste 9 Sudoeste 0 936.4 -- 89
2020-11-07 01:00:00 11.8 3 Sur 17 Sudeste 0 936.9 -- 89
2020-11-07 00:00:00 12 6 Sudeste 11 Este 0 936.4 -- 88
2020-11-06 23:00:00 12.4 0 Calma 11 Sudeste 0.2 936.8 -- 86
2020-11-06 22:00:00 13.2 6 Sudoeste 25 Oeste 0 936.7 -- 79
2020-11-06 21:00:00 13.8 10 Sur 27 Sur 0.8 936.4 -- 81
2020-11-06 20:00:00 14.5 17 Sur 45 Sudeste 0.4 934.9 -- 74
2020-11-06 19:00:00 15.9 14 Sur 41 Sur 0.2 935.7 -- 81
2020-11-06 18:00:00 17 20 Sudeste 43 Sur 0 935.1 -- 74
2020-11-06 17:00:00 17.6 18 Sudeste 40 Sur 0 934.8 -- 70
2020-11-06 16:00:00 17.7 18 Sudeste 49 Sudeste 0 935.2 -- 71
2020-11-06 15:00:00 17 21 Sudeste 39 Sudeste 0.2 935.8 -- 73
2020-11-06 14:00:00 14.6 10 Sudeste 26 Sudeste 0 937.3 -- 81
2020-11-06 13:00:00 13.7 11 Este 29 Sudeste 0 938.3 -- 82
2020-11-06 12:00:00 13.2 17 Este 29 Sudeste 0 938.4 -- 81
2020-11-06 11:00:00 13 9 Este 22 Sudeste 0 939 -0.3 85
2020-11-06 10:00:00 12 5 Sudeste 19 Este 0 939.8 -- 89
2020-11-06 09:00:00 11.6 4 Nordeste 18 Sur 0 939.2 -- 89
2020-11-06 08:00:00 11 10 Sudeste 19 Sur 0 939.3 -- 92
2020-11-06 07:00:00 10 7 Sudeste 13 Sudeste 0 939.6 -- 95
2020-11-06 06:00:00 10.5 4 Este 12 Sudeste 0 939.9 -- 94
2020-11-06 05:00:00 10.8 5 Este 13 Sudoeste 0.2 940.2 -- 95
2020-11-06 04:00:00 10.7 5 Sur 17 Este 0.4 940.9 -- 95
2020-11-06 03:00:00 9.8 7 Este 14 Este 0 939.3 -- 96
2020-11-06 02:00:00 9.8 10 Este 18 Este 0 939.5 -- 96
2020-11-06 01:00:00 9.1 4 Este 12 Nordeste 0 940.2 -- 96
2020-11-06 00:00:00 9.6 4 Nordeste 13 Este 0 941 -- 95
2020-11-05 23:00:00 10.5 8 Este 25 Este 0.2 941.2 -- 94
2020-11-05 22:00:00 10.7 13 Este 25 Este 1.8 940.9 -- 96
2020-11-05 21:00:00 11.1 6 Sudeste 14 Este 0 941.5 -- 94
2020-11-05 20:00:00 11.2 8 Este 26 Este 0.2 941.2 -- 93
2020-11-05 19:00:00 11.6 18 Este 28 Este 0.2 941.2 -- 90
2020-11-05 18:00:00 12.1 14 Este 26 Este 0.2 940.7 -- 87
2020-11-05 17:00:00 12.7 11 Este 21 Este 0.2 940.6 -- 85
2020-11-05 16:00:00 13.3 11 Este 23 Este 0 940.7 -- 79
2020-11-05 15:00:00 13.1 14 Este 25 Este 0 940.8 -- 76
2020-11-05 14:00:00 12.4 12 Este 24 Este 0 941.3 -- 78
2020-11-05 13:00:00 11.7 11 Este 23 Este 0 942 -- 80
2020-11-05 12:00:00 11.2 9 Este 27 Este 0 942.6 -- 82
2020-11-05 11:00:00 10.1 14 Este 27 Este 0 942.9 -- 86
2020-11-05 10:00:00 9.4 16 Este 28 Sudeste 0.2 943.2 -- 87
2020-11-05 09:00:00 9.2 15 Este 31 Este 0 943.3 -- 85
2020-11-05 08:00:00 7.5 8 Nordeste 24 Este 0 942.6 -- 90
2020-11-05 07:00:00 7.4 11 Nordeste 25 Nordeste 0 942.3 -- 89
2020-11-05 06:00:00 8 16 Nordeste 31 Nordeste 0 942.8 -- 86
2020-11-05 05:00:00 7 11 Nordeste 24 Nordeste 0 943.3 -- 90
2020-11-05 04:00:00 7 13 Nordeste 21 Nordeste 0 942.9 -- 87
2020-11-05 03:00:00 6.4 10 Nordeste 21 Este 0 943.5 -- 86
2020-11-05 02:00:00 6.1 11 Nordeste 22 Nordeste 0 943.5 -- 86
2020-11-05 01:00:00 6.6 12 Este 23 Nordeste 0 944.1 -- 84
2020-11-05 00:00:00 7.4 11 Nordeste 30 Este 0 943.9 -- 80
2020-11-04 23:00:00 7.4 15 Este 30 Nordeste 0 943.8 -- 80
2020-11-04 22:00:00 6.9 15 Nordeste 32 Este 0 943.6 -- 82
2020-11-04 21:00:00 7 19 Nordeste 40 Nordeste 0 943.3 -- 80
2020-11-04 20:00:00 7.3 26 Nordeste 45 Nordeste 0 942.8 -- 79
2020-11-04 19:00:00 7.1 22 Nordeste 39 Nordeste 0.2 942.7 -- 84
2020-11-04 18:00:00 8.1 15 Nordeste 42 Nordeste 0 942.4 -- 76
2020-11-04 17:00:00 9.7 24 Este 41 Nordeste 0 942.4 -- 61
2020-11-04 16:00:00 10.6 22 Este 43 Nordeste 0 942.1 -- 55
2020-11-04 15:00:00 10.7 23 Nordeste 41 Nordeste 0 942.5 -- 58
2020-11-04 14:00:00 10.6 22 Nordeste 39 Nordeste 0 943 -- 59
2020-11-04 13:00:00 10.9 21 Este 45 Nordeste 0 944 -- 62
2020-11-04 12:00:00 9.4 22 Nordeste 41 Nordeste 0 945 -- 66
2020-11-04 11:00:00 8 21 Nordeste 39 Nordeste 0 945.8 -0.9 70
2020-11-04 10:00:00 6.6 19 Nordeste 33 Este 0 946.4 -- 75
2020-11-04 09:00:00 5.8 12 Nordeste 21 Nordeste 0 946.6 -- 81
2020-11-04 08:00:00 5 9 Nordeste 18 Nordeste 0 946.7 -- 83
2020-11-04 07:00:00 5.1 7 Sudeste 13 Sudeste 0 947.2 -- 84
2020-11-04 06:00:00 5.1 7 Este 17 Este 0 947.5 -- 85
2020-11-04 05:00:00 5 6 Este 17 Este 0 948 -- 87
2020-11-04 04:00:00 4.6 6 Nordeste 15 Nordeste 0 948.8 -- 88
2020-11-04 03:00:00 4.6 7 Nordeste 14 Nordeste 0 949.2 -- 87
2020-11-04 02:00:00 5.1 6 Nordeste 15 Nordeste 0 950 -- 86
2020-11-04 01:00:00 5.9 9 Nordeste 22 Nordeste 0 950.8 -- 83
2020-11-04 00:00:00 6.4 12 Nordeste 28 Nordeste 0 951.3 -- 80
2020-11-03 23:00:00 7.2 13 Este 23 Este 0 951.7 -- 77
2020-11-03 22:00:00 8 8 Este 25 Nordeste 0 952.2 -- 76
2020-11-03 21:00:00 9.3 17 Nordeste 29 Este 0 951.9 -- 71
2020-11-03 20:00:00 11 9 Nordeste 19 Nordeste 0 951.6 -- 69
2020-11-03 19:00:00 11.8 10 Este 22 Este 0 951.4 -- 63
2020-11-03 18:00:00 13.5 11 Este 24 Este 0 950.9 -- 55
2020-11-03 17:00:00 14.3 11 Este 27 Este 0 950.9 -- 53
2020-11-03 16:00:00 15.3 14 Nordeste 26 Nordeste 0 950.9 -- 51
2020-11-03 15:00:00 15.9 13 Nordeste 27 Nordeste 0 951.2 -- 51
2020-11-03 14:00:00 15.1 14 Nordeste 30 Nordeste 0 951.6 -- 48
2020-11-03 13:00:00 14.2 16 Nordeste 32 Nordeste 0 951.9 -- 51
2020-11-03 12:00:00 11.8 15 Nordeste 33 Norte 0 952.4 -- 58
2020-11-03 11:00:00 10.8 17 Norte 33 Norte 0 952.3 -- 58
2020-11-03 10:00:00 9.4 17 Nordeste 28 Norte 0 952 -- 62
2020-11-03 09:00:00 9 11 Nordeste 26 Norte 0 951.7 -- 61
2020-11-03 08:00:00 9.1 15 Norte 30 Norte 0 950.6 -- 58
2020-11-03 07:00:00 9.3 17 Norte 28 Norte 0 950 -- 60
2020-11-03 06:00:00 10 14 Norte 22 Norte 0 949.5 -- 65
2020-11-03 05:00:00 10.8 6 Norte 17 Norte 0 949.2 -- 70
2020-11-03 04:00:00 11.8 5 Norte 21 Norte 0 949.2 -- 74
2020-11-03 03:00:00 13.2 6 Nordeste 17 Norte 0 948.6 -- 79
2020-11-03 02:00:00 14.4 3 Noroeste 13 Noroeste 0 947.9 -- 89
2020-11-03 01:00:00 15.3 4 Oeste 13 Oeste 0 947.7 -- 88
2020-11-03 00:00:00 15.9 5 Sudoeste 11 Sudoeste 0 947.5 -- 87
2020-11-02 23:00:00 16.3 5 Sudoeste 12 Oeste 0 947.6 -- 84
2020-11-02 22:00:00 16.4 3 Sur 13 Oeste 0 947.4 -- 80
2020-11-02 21:00:00 16.4 5 Sudoeste 11 Sudoeste 0 947.3 -- 79
2020-11-02 20:00:00 16.9 4 Sudoeste 14 Sudoeste 0 947.2 -- 76
2020-11-02 19:00:00 17.6 5 Sudoeste 12 Sudoeste 0 946.7 -- 71
2020-11-02 18:00:00 18.4 4 Sudoeste 14 Oeste 0 946.2 -- 68
2020-11-02 17:00:00 19.2 6 Oeste 17 Oeste 0 946.1 -- 64
2020-11-02 16:00:00 19.6 6 Oeste 15 Oeste 0 946.1 -- 63
2020-11-02 15:00:00 19.6 6 Oeste 16 Oeste 0 946 -- 64
2020-11-02 14:00:00 20.1 6 Sudoeste 21 Oeste 0 946.6 -- 63
2020-11-02 13:00:00 19.6 7 Oeste 21 Oeste 0 947.1 -- 65
2020-11-02 12:00:00 18.4 9 Sudoeste 19 Sudoeste 0 947.7 -- 73
2020-11-02 11:00:00 16.3 7 Oeste 13 Oeste 0 947.9 -- 84
2020-11-02 10:00:00 13.9 3 Noroeste 12 Sudoeste 0 948 -- 94
2020-11-02 09:00:00 12.1 5 Sudoeste 15 Sudoeste 0 947.4 -- 98
2020-11-02 08:00:00 11.8 7 Sudoeste 16 Sudoeste 0 947 -- 97
2020-11-02 07:00:00 11.8 5 Sudoeste 12 Sudoeste 0 946.6 -- 95
2020-11-02 06:00:00 12 6 Sudoeste 11 Sudoeste 0 946.7 -- 94
2020-11-02 05:00:00 12.8 4 Sudoeste 11 Sudoeste 0 946.6 -- 94
2020-11-02 04:00:00 13.2 5 Sudoeste 14 Oeste 0 946.8 -- 94
2020-11-02 03:00:00 13.8 5 Sudoeste 15 Oeste 0 947.1 -- 95
2020-11-02 02:00:00 13.8 8 Oeste 17 Oeste 0 947.1 -- 96
2020-11-02 01:00:00 13.5 5 Oeste 14 Oeste 0 947.5 -- 95
2020-11-02 00:00:00 13.7 4 Sudoeste 12 Sudoeste 0 947.7 -- 92
2020-11-01 23:00:00 14.4 3 Sudoeste 9 Oeste 0 947.9 -- 89
2020-11-01 22:00:00 15 2 Sudoeste 7 Sudoeste 0 947.6 -- 87
2020-11-01 21:00:00 15.5 3 Oeste 12 Oeste 0 947.7 -- 84
2020-11-01 20:00:00 16.3 4 Oeste 11 Sudoeste 0 947.7 -- 82
2020-11-01 19:00:00 16.9 4 Sudoeste 9 Sudoeste 0 947.4 -- 79
2020-11-01 18:00:00 17.5 4 Oeste 14 Sudoeste 0 947.4 -- 76
2020-11-01 17:00:00 18.1 5 Oeste 17 Noroeste 0 947.6 -- 73
2020-11-01 16:00:00 18.9 5 Oeste 14 Sudoeste 0 947.8 -- 67
2020-11-01 15:00:00 19.1 6 Sudoeste 18 Oeste 0 947.9 -- 68
2020-11-01 14:00:00 18.6 8 Oeste 17 Oeste 0 948.5 -- 69
2020-11-01 13:00:00 17.8 5 Oeste 17 Oeste 0 949.1 -- 77
2020-11-01 12:00:00 15.4 4 Oeste 9 Oeste 0 949.7 -- 85
2020-11-01 11:00:00 13.2 3 Noroeste 8 Sur 0 949.7 -- 90
2020-11-01 10:00:00 11.7 3 Sur 10 Sur 0 949.7 -- 96
2020-11-01 09:00:00 11.2 2 Sudoeste 7 Sur 0 949.5 -- 99
2020-11-01 08:00:00 10.8 0 Calma 5 Sur 0 949 -- 99
2020-11-01 07:00:00 10.2 2 Sudoeste 5 Sudoeste 0 949 -- 98
2020-11-01 06:00:00 9.8 2 Sudeste 9 Sudoeste 0 948.9 -- 98
2020-11-01 05:00:00 9.1 2 Noroeste 6 Norte 0 948.8 -- 95
2020-11-01 04:00:00 9.5 0 Calma 5 Este 0 949.3 -- 96
2020-11-01 03:00:00 9.5 3 Sur 5 Sur 0 949.5 -- 95
2020-11-01 02:00:00 9.7 3 Sur 4 Noroeste 0 949.4 -- 92
2020-11-01 01:00:00 10.8 0 Calma 7 Oeste 0 949.9 -- 90
2020-11-01 00:00:00 11.5 3 Sudoeste 8 Sudoeste 0 949.8 -- 92
2020-10-31 23:00:00 12.6 2 Sudoeste 8 Oeste 0 949.9 -- 87
2020-10-31 22:00:00 12.6 0 Calma 5 Sudoeste 0 949.5 -- 84
2020-10-31 21:00:00 13.9 2 Oeste 6 Oeste 0 949.1 -- 82
2020-10-31 20:00:00 14.7 3 Oeste 5 Oeste 0 949 -- 79
2020-10-31 19:00:00 15.7 0 Calma 9 Sudoeste 0 949 -- 75
2020-10-31 18:00:00 17.5 3 Noroeste 12 Noroeste 0 948.9 -- 70
2020-10-31 17:00:00 18.8 6 Oeste 17 Oeste 0 948.4 -- 63
2020-10-31 16:00:00 19.8 8 Oeste 22 Oeste 0 948.1 -- 57
2020-10-31 15:00:00 20.4 5 Oeste 15 Noroeste 0 948.6 -- 61
2020-10-31 14:00:00 18.8 3 Sur 10 Sudoeste 0 949.1 -- 69
2020-10-31 13:00:00 16.3 2 Este 6 Este 0 949.5 -- 77
2020-10-31 12:00:00 14.2 3 Norte 7 Norte 0 950.3 -- 82
2020-10-31 11:00:00 10.5 2 Nordeste 7 Norte 0 950.6 -- 94
2020-10-31 10:00:00 7.9 4 Sudeste 7 Sudeste 0 950.6 -- 100
2020-10-31 09:00:00 6.1 2 Sur 7 Sur 0 950.3 -- 99
2020-10-31 08:00:00 5.4 0 Calma 4 Sur 0 949.9 -- 98
2020-10-31 07:00:00 5.2 0 Calma 4 Oeste 0 949.7 -- 98
2020-10-31 06:00:00 5.7 2 Norte 3 Norte 0 949.1 -- 97
2020-10-31 05:00:00 6.6 3 Noroeste 5 Noroeste 0 948.9 -- 97
2020-10-31 04:00:00 6.7 0 Calma 4 Noroeste 0 949.1 -- 98
2020-10-31 03:00:00 7.3 2 Noroeste 4 Sur 0 949 -- 96
2020-10-31 02:00:00 8.4 3 Sur 4 Sur 0 949 -- 97
2020-10-31 01:00:00 8.7 0 Calma 4 Noroeste 0 949.1 -- 95
2020-10-31 00:00:00 9.5 0 Calma 4 Sur 0 949.2 -- 93
2020-10-30 23:00:00 10.3 0 Calma 4 Sur 0 949.2 -- 92
2020-10-30 22:00:00 11.3 3 Sur 4 Sur 0 948.9 -- 88
2020-10-30 21:00:00 12.3 0 Calma 4 Sur 0 948.8 -- 84
2020-10-30 20:00:00 13.6 0 Calma 5 Sudeste 0 948.6 -- 80
2020-10-30 19:00:00 14.9 3 Este 6 Sudeste 0 948.5 -- 74
2020-10-30 18:00:00 16.1 4 Este 6 Este 0 948.5 -- 71
2020-10-30 17:00:00 17.4 5 Este 10 Sudeste 0 948.4 -- 67
2020-10-30 16:00:00 18.2 3 Sudeste 8 Este 0 948.7 -- 67
2020-10-30 15:00:00 16.5 4 Este 8 Este 0 949.3 -- 74
2020-10-30 14:00:00 12.8 2 Este 8 Este 0.2 950 -- 86
2020-10-30 13:00:00 9.5 4 Sudeste 8 Sudeste 0 950.8 -- 96
2020-10-30 12:00:00 7.7 4 Este 8 Este 0 951.4 -- 99
2020-10-30 11:00:00 6.4 5 Nordeste 8 Este 0 951.3 -- 100
2020-10-30 10:00:00 5.3 3 Este 9 Este 0 951.5 -- 100
2020-10-30 09:00:00 4.4 5 Este 11 Este 0 951.1 -- 100
2020-10-30 08:00:00 3.9 2 Este 4 Nordeste 0 950.7 -- 99
2020-10-30 07:00:00 4.2 2 Este 4 Este 0 950.5 -- 99
2020-10-30 06:00:00 4.5 0 Calma 3 Sur 0 950.5 -- 97
2020-10-30 05:00:00 4.9 0 Calma 4 Norte 0 950.2 -- 98
2020-10-30 04:00:00 5.2 0 Calma 5 Nordeste 0 950.4 -- 96
2020-10-30 03:00:00 5.8 2 Nordeste 6 Nordeste 0 950.3 -- 96
2020-10-30 02:00:00 6.4 0 Calma 6 Norte 0 950.3 -- 95
2020-10-30 01:00:00 7 0 Calma 3 Noroeste 0 950.3 -- 95
2020-10-30 00:00:00 7.5 0 Calma 3 Noroeste 0 950.5 -- 93
2020-10-29 23:00:00 8.1 0 Calma 4 Nordeste 0 950.5 -- 91
2020-10-29 22:00:00 8.8 0 Calma 6 Nordeste 0 950.2 -- 89
2020-10-29 21:00:00 9.6 0 Calma 5 Norte 0 949.9 -- 87
2020-10-29 20:00:00 10.7 3 Norte 8 Nordeste 0 949.8 -- 85
2020-10-29 19:00:00 12.1 3 Norte 7 Norte 0 949.4 -- 80
2020-10-29 18:00:00 13.7 4 Nordeste 7 Norte 0 949.1 -- 74
2020-10-29 17:00:00 14.9 4 Este 9 Nordeste 0 949.3 -- 69
2020-10-29 16:00:00 16.3 4 Este 10 Sudeste 0 949.5 -- 64
2020-10-29 15:00:00 15.7 4 Norte 10 Este 0 949.9 -- 64
2020-10-29 14:00:00 14.2 4 Este 9 Nordeste 0 950.5 -- 69
2020-10-29 13:00:00 11.6 6 Norte 11 Norte 0 951.1 -- 84
2020-10-29 12:00:00 9.4 5 Nordeste 11 Norte 0 951.3 -- 92
2020-10-29 11:00:00 7.9 5 Norte 12 Norte 0 951.2 -- 96
2020-10-29 10:00:00 6.6 8 Norte 12 Norte 0 951.2 -- 99
2020-10-29 09:00:00 5.2 5 Nordeste 9 Nordeste 0 950.6 -- 98
2020-10-29 08:00:00 5.4 3 Sudeste 7 Este 0 949.6 -- 99
2020-10-29 07:00:00 4.9 3 Norte 4 Norte 0 949.8 -- 97
2020-10-29 06:00:00 5.5 2 Nordeste 5 Noroeste 0 949.6 -- 96
2020-10-29 05:00:00 5.9 3 Noroeste 7 Sur 0 949.2 -- 95
2020-10-29 04:00:00 6.8 0 Calma 3 Nordeste 0 948.7 -- 95
2020-10-29 03:00:00 6.9 2 Noroeste 6 Sur 0 949.1 -- 96
2020-10-29 02:00:00 7.4 0 Calma 5 Noroeste 0 948.9 -- 93
2020-10-29 01:00:00 8.5 0 Calma 9 Oeste 0 948.8 -- 92
2020-10-29 00:00:00 9 0 Calma 5 Sur 0 948.7 -- 91
2020-10-28 23:00:00 9.6 2 Sudeste 5 Sudoeste 0 948.6 -- 89
2020-10-28 22:00:00 10.7 3 Sudoeste 6 Sudoeste 0 948 -- 85
2020-10-28 21:00:00 11.8 3 Oeste 14 Sudoeste 0 947.7 -- 80
2020-10-28 20:00:00 12.7 5 Oeste 13 Oeste 0 947.8 -- 77
2020-10-28 19:00:00 13.4 4 Oeste 15 Noroeste 0 947.2 -- 74
2020-10-28 18:00:00 14.8 6 Oeste 21 Oeste 0 945.9 -- 68
2020-10-28 17:00:00 15.9 6 Oeste 19 Oeste 0 946.3 -- 66
2020-10-28 16:00:00 16.4 5 Oeste 22 Noroeste 0.2 946 -- 70
2020-10-28 15:00:00 16.5 8 Oeste 21 Oeste 0 945.2 -- 72
2020-10-28 14:00:00 16.5 7 Oeste 25 Oeste 0 945.3 -- 71
2020-10-28 13:00:00 15.2 6 Oeste 17 Noroeste 0 946 -- 78
2020-10-28 12:00:00 15.4 8 Oeste 21 Oeste 0 945.9 -- 76
2020-10-28 11:00:00 14.5 6 Oeste 18 Sudoeste 0 945.5 -- 82
2020-10-28 10:00:00 12.5 6 Sudoeste 15 Oeste 0 944.9 -- 94
2020-10-28 09:00:00 12.3 7 Oeste 17 Sudoeste 0 944.6 -- 93
2020-10-28 08:00:00 12.1 10 Sudoeste 18 Sudoeste 0 943.5 -- 96
2020-10-28 07:00:00 12.2 5 Sudoeste 13 Sudoeste 0 943 -- 94
2020-10-28 06:00:00 12.4 7 Sudoeste 16 Sudoeste 0 942.7 -- 93
2020-10-28 05:00:00 12.2 6 Sudoeste 20 Sudoeste 0 942.5 -- 94
2020-10-28 04:00:00 11.9 9 Sudoeste 22 Sudoeste 0 942.2 -- 95
2020-10-28 03:00:00 11.9 6 Sudoeste 18 Oeste 0 942.5 -- 94
2020-10-28 02:00:00 12.1 8 Sudoeste 21 Sudoeste 0 942.6 -- 90
2020-10-28 01:00:00 11.9 9 Sudoeste 26 Sudoeste 0 942.8 -- 89
2020-10-28 00:00:00 11.7 8 Sudoeste 23 Sudoeste 0 942.8 -- 88